Weather History for KBKD - October, 2011

Change the Weather History Date:

Saturday, October 8, 2011

  Actual Average (KABI) Record (KABI)
Temperature  
Mean Temperature 70 °F 68 °F  
Max Temperature 78 °F 80 °F 102 °F (1979)
Min Temperature 62 °F 57 °F 34 °F (1921)
Degree Days  
Heating Degree Days 0 2  
Month to date heating degree days 12  
Since 1 July heating degree days 23  
Cooling Degree Days 5 5  
Month to date cooling degree days 46  
Year to date cooling degree days 2317  
Growing Degree Days 20 (Base 50)    
Moisture  
Dew Point 64 °F    
Average Humidity 79    
Maximum Humidity 100    
Minimum Humidity 57    
Precipitation  
Precipitation 1.98 in 0.09 in 3.57 in (2011)
Month to date precipitation 0.70  
Year to date precipitation 19.90  
Sea Level Pressure  
Sea Level Pressure 29.96 in    
Wind  
Wind Speed 15 mph (SE)    
Max Wind Speed 21 mph    
Max Gust Speed 33 mph    
Visibility 8 miles    
Events Rain , Thunderstorm    
T = Trace of Precipitation, MM = Missing Value Source: NWS Daily Summary

Daily Weather History Graph

Daily Weather History Graph

Search for Another Location

Airport or City:

Trip Planner

Search our weather history database for the weather conditions in past years. The results will help you decide how hot, cold, wet, or windy it might be!

Date:

Astronomy

Oct. 08, 2011 Rise Set
Actual Time 7:34 AM CDT 7:11 PM CDT
Civil Twilight 7:09 AM CDT 7:36 PM CDT
Nautical Twilight 6:41 AM CDT 8:04 PM CDT
Astronomical Twilight 6:12 AM CDT 8:33 PM CDT
Moon 5:15 PM CDT (10/8) 4:31 AM CDT (10/8)
Length of Visible Light 12h 26m
Length of Day
11h 37m
Waxing Gibbous, 90% of the Moon is Illuminated
Oct 8
Waxing Gibbous
Oct 11
Full
Oct 19
Last Quarter
Oct 26
New
Nov 2
First Quarter

Hourly Weather History & Observations

Time (CDT) Temp. Dew Point Humidity Pressure Visibility Wind Dir Wind Speed Gust Speed Precip Events Conditions
12:15 AM 78.8 °F 62.6 °F 57% 29.93 in 10.0 mi SSE 17.3 mph 29.9 mph N/A   Clear
12:35 AM 78.8 °F 62.6 °F 57% 29.93 in 10.0 mi SSE 20.7 mph 32.2 mph N/A   Clear
1:15 AM 77.0 °F 64.4 °F 65% 29.93 in 10.0 mi SSE 16.1 mph 25.3 mph N/A   Clear
1:35 AM 77.0 °F 64.4 °F 65% 29.93 in 10.0 mi SSE 17.3 mph 24.2 mph N/A   Clear
2:15 AM 77.0 °F 64.4 °F 65% 29.93 in 10.0 mi SE 17.3 mph 21.9 mph N/A   Mostly Cloudy
2:35 AM 77.0 °F 64.4 °F 65% 29.93 in 10.0 mi SSE 18.4 mph 27.6 mph N/A   Overcast
2:55 AM 75.2 °F 64.4 °F 69% 29.93 in 10.0 mi SSE 18.4 mph 25.3 mph N/A   Mostly Cloudy
3:15 AM 75.2 °F 64.4 °F 69% 29.93 in 10.0 mi SSE 19.6 mph 25.3 mph N/A   Overcast
3:35 AM 75.2 °F 64.4 °F 69% 29.94 in 10.0 mi SSE 20.7 mph 24.2 mph N/A   Overcast
3:55 AM 75.2 °F 64.4 °F 69% 29.94 in 10.0 mi South 12.7 mph 28.8 mph N/A   Overcast
4:15 AM 75.2 °F 64.4 °F 69% 29.94 in 10.0 mi SSE 17.3 mph 26.5 mph N/A   Overcast
4:35 AM 75.2 °F 62.6 °F 65% 29.94 in 10.0 mi South 19.6 mph 27.6 mph N/A   Overcast
4:55 AM 73.4 °F 62.6 °F 69% 29.94 in 10.0 mi South 18.4 mph 26.5 mph N/A   Mostly Cloudy
5:15 AM 73.4 °F 62.6 °F 69% 29.94 in 10.0 mi SSE 19.6 mph 29.9 mph N/A   Overcast
5:35 AM 75.2 °F 62.6 °F 65% 29.93 in 10.0 mi SSE 15.0 mph 33.4 mph N/A   Overcast
5:55 AM 75.2 °F 62.6 °F 65% 29.93 in 10.0 mi South 13.8 mph 27.6 mph N/A   Overcast
6:15 AM 75.2 °F 62.6 °F 65% 29.93 in 10.0 mi SSE 19.6 mph 23.0 mph N/A   Overcast
6:35 AM 73.4 °F 62.6 °F 69% 29.94 in 10.0 mi SSE 15.0 mph 27.6 mph N/A   Overcast
6:55 AM 73.4 °F 62.6 °F 69% 29.95 in 10.0 mi SSE 12.7 mph 23.0 mph N/A   Overcast
7:15 AM 73.4 °F 64.4 °F 73% 29.96 in 10.0 mi SSE 15.0 mph 20.7 mph N/A   Overcast
7:35 AM 73.4 °F 64.4 °F 73% 29.96 in 10.0 mi SSE 15.0 mph 21.9 mph N/A   Overcast
7:55 AM 73.4 °F 64.4 °F 73% 29.96 in 10.0 mi SSE 11.5 mph - N/A   Overcast
8:15 AM 73.4 °F 64.4 °F 73% 29.97 in 10.0 mi SSE 17.3 mph 21.9 mph N/A   Overcast
8:35 AM 73.4 °F 64.4 °F 73% 29.98 in 10.0 mi SSE 17.3 mph 20.7 mph N/A Rain Light Rain
8:55 AM 75.2 °F 64.4 °F 69% 29.98 in 10.0 mi SSE 12.7 mph 21.9 mph N/A   Overcast
9:15 AM 75.2 °F 64.4 °F 69% 29.99 in 10.0 mi SSE 11.5 mph 21.9 mph N/A   Overcast
9:35 AM 75.2 °F 64.4 °F 69% 29.99 in 10.0 mi SSE 12.7 mph 18.4 mph N/A   Overcast
9:55 AM 75.2 °F 64.4 °F 69% 30.00 in 10.0 mi SSE 12.7 mph 23.0 mph N/A   Overcast
10:15 AM 77.0 °F 64.4 °F 65% 29.99 in 10.0 mi SSE 11.5 mph 23.0 mph N/A   Overcast
10:35 AM 77.0 °F 64.4 °F 65% 29.99 in 10.0 mi SSE 17.3 mph 23.0 mph N/A   Overcast
11:15 AM 77.0 °F 64.4 °F 65% 29.99 in 10.0 mi SE 20.7 mph - N/A   Mostly Cloudy
11:35 AM 77.0 °F 64.4 °F 65% 29.99 in 10.0 mi SSE 12.7 mph 20.7 mph N/A   Overcast
11:55 AM 77.0 °F 66.2 °F 69% 29.99 in 7.0 mi SSE 16.1 mph 21.9 mph N/A Rain Light Rain
12:15 PM 71.6 °F 69.8 °F 94% 29.98 in 2.5 mi SE 4.6 mph - 0.13 in Rain , Thunderstorm Heavy Thunderstorms and Rain
12:35 PM 71.6 °F 69.8 °F 94% 29.99 in 2.0 mi SSE 9.2 mph - 0.34 in Rain , Thunderstorm Thunderstorms and Rain
12:55 PM 71.6 °F 69.8 °F 94% 29.98 in 7.0 mi SE 10.4 mph - 0.36 in Rain , Thunderstorm Light Thunderstorms and Rain
1:15 PM 71.6 °F 69.8 °F 94% 29.98 in 10.0 mi SSE 13.8 mph 19.6 mph N/A Thunderstorm Overcast
1:35 PM 71.6 °F 68.0 °F 88% 29.98 in 10.0 mi SSE 12.7 mph - N/A Thunderstorm Overcast
2:15 PM 73.4 °F 68.0 °F 83% 29.95 in 10.0 mi SE 10.4 mph - N/A Rain Rain
2:35 PM 73.4 °F 69.8 °F 88% 29.95 in 7.0 mi SE 9.2 mph - 0.01 in Rain , Thunderstorm Light Thunderstorms and Rain
2:55 PM 69.8 °F 69.8 °F 100% 29.94 in 2.5 mi South 4.6 mph 9.2 mph 0.11 in Rain , Thunderstorm Heavy Thunderstorms and Rain
3:15 PM 71.6 °F 69.8 °F 94% 29.94 in 10.0 mi East 5.8 mph - N/A Thunderstorm Thunderstorm
3:35 PM 69.8 °F 66.2 °F 88% 29.95 in 10.0 mi North 18.4 mph 25.3 mph N/A Thunderstorm Overcast
3:55 PM 64.4 °F 62.6 °F 94% 29.95 in 10.0 mi North 16.1 mph - N/A Rain , Thunderstorm Light Thunderstorms and Rain
4:15 PM 64.4 °F 62.6 °F 94% 29.93 in 3.0 mi NNE 12.7 mph 20.7 mph 0.14 in Rain , Thunderstorm Heavy Thunderstorms and Rain
4:35 PM 62.6 °F 62.6 °F 100% 29.94 in 5.0 mi NNE 8.1 mph 20.7 mph 0.25 in Rain , Thunderstorm Thunderstorms and Rain
4:55 PM 62.6 °F 62.6 °F 100% 29.97 in 4.0 mi NE 12.7 mph 18.4 mph 0.34 in Rain , Thunderstorm Heavy Thunderstorms and Rain
5:15 PM 62.6 °F 60.8 °F 94% 29.99 in 10.0 mi ENE 8.1 mph - 0.01 in Rain , Thunderstorm Light Thunderstorms and Rain
5:35 PM 62.6 °F 60.8 °F 94% 29.98 in 1.5 mi NNE 6.9 mph - 0.19 in Rain , Thunderstorm Heavy Thunderstorms and Rain
5:55 PM 62.6 °F 60.8 °F 94% 29.96 in 3.0 mi NE 11.5 mph - 0.34 in Rain , Thunderstorm Rain
6:15 PM 62.6 °F 60.8 °F 94% 29.96 in 7.0 mi ENE 12.7 mph - 0.05 in Rain , Thunderstorm Rain
6:35 PM 62.6 °F 60.8 °F 94% 29.96 in 5.0 mi ENE 12.7 mph 18.4 mph 0.10 in Rain , Thunderstorm Rain
6:55 PM 62.6 °F 60.8 °F 94% 29.98 in 5.0 mi NE 12.7 mph 20.7 mph 0.13 in Rain , Thunderstorm Rain
7:15 PM 62.6 °F 60.8 °F 94% 29.97 in 7.0 mi NE 11.5 mph 19.6 mph 0.03 in Rain , Thunderstorm Light Thunderstorms and Rain
7:35 PM 62.6 °F 60.8 °F 94% 30.00 in 5.0 mi NE 11.5 mph - 0.09 in Rain , Thunderstorm Heavy Thunderstorms and Rain
7:55 PM 62.6 °F 60.8 °F 94% 30.00 in 1.5 mi ENE 9.2 mph - 0.37 in Rain , Thunderstorm Heavy Thunderstorms and Rain
8:15 PM 62.6 °F 60.8 °F 94% 29.98 in 4.0 mi NE 13.8 mph - 0.11 in Rain , Thunderstorm Thunderstorms and Rain
8:35 PM 62.6 °F 60.8 °F 94% 30.01 in 10.0 mi East 12.7 mph 19.6 mph 0.17 in Rain , Thunderstorm Light Thunderstorms and Rain
9:15 PM 62.6 °F 60.8 °F 94% 30.03 in 5.0 mi ENE 11.5 mph 17.3 mph 0.06 in Rain Rain
9:35 PM 62.6 °F 60.8 °F 94% 30.08 in 4.0 mi East 8.1 mph - 0.16 in Rain , Thunderstorm Heavy Thunderstorms and Rain
9:55 PM 62.6 °F 60.8 °F 94% 30.06 in 2.5 mi East 6.9 mph - 0.34 in Rain , Thunderstorm Rain
10:15 PM 62.6 °F 60.8 °F 94% 30.06 in 5.0 mi East 5.8 mph - 0.05 in Rain , Thunderstorm Rain
10:35 PM 62.6 °F 60.8 °F 94% 30.05 in 4.0 mi NE 6.9 mph - 0.14 in Rain Rain
10:55 PM 62.6 °F 62.6 °F 100% 30.06 in 4.0 mi Calm Calm - 0.21 in Rain Rain
11:15 PM 62.6 °F 62.6 °F 100% 30.06 in 3.0 mi NNE 6.9 mph - 0.07 in Rain , Thunderstorm Heavy Thunderstorms and Rain
11:35 PM 62.6 °F 60.8 °F 94% 30.05 in 5.0 mi NE 5.8 mph - 0.13 in Rain Rain
11:55 PM 62.6 °F 62.6 °F 100% 30.05 in 5.0 mi NE 9.2 mph - 0.21 in Rain Rain